Location: Ełk
(53.8214°N, 22.3622°E)
Time: 12:00:27
(UTC+01:00)

ISS - Visible Passes

Search period start: 24 January 2019 00:00
Search period end: 03 February 2019 00:00
Orbit: 404 x 410 km, 51.6° (Epoch: 24 January)

Date Brightness Start Highest point End Pass type
(mag) Time Alt. Az. Time Alt. Az. Time Alt. Az.
24 Jan -1.6 17:50:29 10° S 17:52:03 14° SSE 17:52:03 14° SSE visible
25 Jan -1.8 18:34:05 10° SW 18:35:41 22° SSW 18:35:41 22° SSW visible
26 Jan -2.3 17:43:07 10° SSW 17:45:50 24° SSE 17:46:30 22° SE visible
26 Jan -0.7 19:18:45 10° WSW 19:19:14 13° WSW 19:19:14 13° WSW visible
27 Jan -1.7 16:52:24 10° S 16:54:38 17° SSE 16:56:54 10° ESE visible
27 Jan -2.7 18:27:29 10° WSW 18:30:00 39° SSW 18:30:00 39° SSW visible
28 Jan -2.8 17:36:17 10° SW 17:39:21 36° SSE 17:40:43 24° ESE visible
28 Jan -1.1 19:12:22 10° W 19:13:26 19° WSW 19:13:26 19° WSW visible
29 Jan -2.3 16:45:12 10° SW 16:48:04 27° SSE 16:50:57 10° E visible
29 Jan -3.5 18:21:01 10° WSW 18:24:07 56° S 18:24:07 56° S visible
30 Jan -3.3 17:29:40 10° WSW 17:32:53 50° SSE 17:34:47 21° E visible
30 Jan -1.5 19:05:59 10° W 19:07:30 24° WSW 19:07:30 24° WSW visible
31 Jan -3.6 18:14:35 10° W 18:17:51 59° S 18:18:09 56° SSE visible
01 Feb -3.4 17:23:10 10° WSW 17:26:26 59° S 17:28:49 17° E visible
01 Feb -1.9 18:59:36 10° W 19:01:32 29° WSW 19:01:32 29° WSW visible
02 Feb -3.3 18:08:07 10° W 18:11:22 52° S 18:12:12 39° SE visible
02 Feb -0.3 19:44:51 10° W 19:44:55 10° W 19:44:55 10° W visible
